Skip Page Navigation
NASA JPL Caltech
NASA Logo - Jet Propulsion Laboratory + View the NASA Portal
+ Center for Near-Earth Object Studies
JPL Home Earth Solar System Stars & Galaxies Technology
JPL Solar System Dynamics
BODIES ORBITS EPHEMERIDES TOOLS PHYSICAL DATA DISCOVERY FAQ SITE MAP
JPL Small-Body Database Browser
Search: [ help ]  
1328 Devota (1925 UA)
Classification: Outer Main-belt Asteroid          SPK-ID: 2001328
Ephemeris | Orbit Diagram | Orbital Elements | Mission Design | Physical Parameters | Discovery Circumstances | Close-Approach Data ]

[ hide orbit diagram ]

For accurate long-term ephemerides, please instead use our Horizons system.This orbit viewer was implemented using two-body methods, and hence should not be used for determining accurate long-term trajectories (over several years or decades) or planetary encounter circumstances.


Orbital Elements at Epoch 2459200.5 (2020-Dec-17.0) TDB
Reference: JPL 54 (heliocentric ecliptic J2000)
 Element Value Uncertainty (1-sigma)   Units 
e .1349673717363958 1.9199e-08  
a 3.501178943993686 1.6326e-08 au
q 3.028634023944049 6.9311e-08 au
i 5.76736571464151 1.2638e-06 deg
node 222.67902950 1.7851e-05 deg
peri 174.1208818503517 1.5456e-05 deg
M 194.7881196046891 9.4162e-06 deg
tp 2460298.642405148314
(2023-Dec-20.14240515)
6.5591e-05 TDB
period 2392.874319373786
6.55
1.6737e-05
4.582e-08
d
yr
n .1504466812507778 1.0523e-09 deg/d
Q 3.973723864043324 1.8529e-08 au
  Orbit Determination Parameters
   # obs. used (total)      3095  
   data-arc span      34833 days (95.37 yr)  
   first obs. used      1925-10-24  
   last obs. used      2021-03-07  
   planetary ephem.      DE441  
   SB-pert. ephem.      SB441-N16  
   condition code      0  
   norm. resid. RMS      .40869  
   source      ORB  
   producer      Otto Matic  
   solution date      2021-Apr-12 12:18:12  

Additional Information
 Earth MOID = 2.03492 au 
 Jupiter MOID = 1.44853 au 
 T_jup = 3.104 
[ show covariance matrix ]

Ephemeris | Orbit Diagram | Orbital Elements | Mission Design | Physical Parameters | Discovery Circumstances | Close-Approach Data ]

Physical Parameter Table
Parameter Symbol Value Units Sigma Reference Notes
absolute magnitude H 10.15   n/a E2021B10 IRAS observations used: 17
diameter diameter 53.697 km 0.481 urn:nasa:pds:neowise_diameters_albedos::2.0[mainbelt] (http://adsabs.harvard.edu/abs/2014ApJ...791..121M)  
rotation period rot_per 17.1243 h n/a LCDB (Rev. 2020-October); Warner et al., 2009 Published Reference List:
[Behrend, R. (2009) Observatoire de Geneve web site, http://obswww.unige.ch/~behrend/page_cou.html]
[Durech, J.; Hanus, J.; Ali-Lagoa, V. (2018) Astron. Astrophys. 617, A57.]
[Pal, A.; Szakats, R.; Kiss, C.; Bodi, A.; et al. (2019) Ap. J. Supl. Ser. 247, id.26.]
geometric albedo albedo 0.046   0.005 urn:nasa:pds:neowise_diameters_albedos::2.0[mainbelt] (http://adsabs.harvard.edu/abs/2014ApJ...791..121M)  
B-V BV 0.695   0.078 EAR-A-5-DDR-UBV-MEAN-VALUES-V1.2 #obs=2; phase (min.=7.83, mean=7.84, max.=7.85) deg.
U-B UB 0.210   0.035 EAR-A-5-DDR-UBV-MEAN-VALUES-V1.2 #obs=1; phase=7.85 deg.
Tholen spectral type spec_T X   n/a EAR-A-5-DDR-TAXONOMY-V4.0 used 2 color indices

1328 Devota (1925 UA)          Discovered 1925-Oct-21 by Jekhovsky, B. at Algiers
Reference: DISCOVERY.DBLast Updated: 2003-08-29

[ hide close-approach data ]
Close-Approach Data   ...sorted by Date/Time (TDB)
Date/Time (TDB) Time Uncertainty
(days_HH:MM)
Body Nominal Distance (au) Minimum Distance (au) Maximum Distance (au) V-relative (km/s) V-infinity (km/s) JD (TDB) Time Uncertainty (minutes) Semi-major axis (km) Semi-minor axis (km) range-LOV angle (deg) N-sigma BP Orbit Ref. Reference Modified
1907-Mar-27 21:39 00:03 Jupiter 1.90217909467835 1.90217870145624 1.90217948790052 3.80537897321655 3.68650618973436 2417662.402160926 2.59063375316399 38.7829371733895 9.86486181080693 -79.8481616996175 4003440.66191906 T 54 CATAB v2.0f-lin.ifort 2021-Apr-12 12:19:00 2021-Apr-12 12:19
1921-Dec-21 18:46 00:03 Jupiter 1.53875357950468 1.53875277119723 1.53875438781308 1.70580466342934 1.34493467103352 2423045.281878951 2.65083369070737 87.8198364706628 13.2814235582521 63.2722661372684 5091117.63280643 T 54 CATAB v2.0f-lin.ifort 2021-Apr-12 12:19:00 2021-Apr-12 12:19
1936-Sep-16 01:12 00:02 Jupiter 1.52799467485302 1.52799392689055 1.52799542281539 2.15899022285416 1.88482537926565 2428427.549717245 2.19516803460116 39.8402430697866 19.8436578495351 -63.8899040240845 4459145.49391795 T 54 CATAB v2.0f-lin.ifort 2021-Apr-12 12:19:00 2021-Apr-12 12:19
1951-May-19 13:48 00:02 Jupiter 1.89576350957719 1.8957632042217 1.89576381493354 4.27946439266241 4.17375375020046 2433786.075087393 1.52659563951575 80.6016922611518 8.41317618457188 83.6729971987158 10249775.5752021 T 54 CATAB v2.0f-lin.ifort 2021-Apr-12 12:19:00 2021-Apr-12 12:19
1965-Sep-03 23:58 00:01 Jupiter 1.95109860665364 1.95109838178131 1.95109883152597 4.58777967843473 4.49215655376271 2439007.498445693 1.15137518827829 42.4689801494728 10.0879793131156 89.1884601122253 7651484.68309245 T 54 CATAB v2.0f-lin.ifort 2021-Apr-12 12:19:00 2021-Apr-12 12:19
1980-Mar-18 23:02 00:01 Jupiter 1.72106376165234 1.72106335457962 1.72106416872525 2.12251544019259 1.8763716726858 2444317.459688533 1.02430010477699 42.6832382452578 7.09873800883349 89.167652672089 6676524.18127026 T 54 CATAB v2.0f-lin.ifort 2021-Apr-12 12:19:00 2021-Apr-12 12:19
1995-Jan-01 07:42 < 00:01 Jupiter 1.40577428488324 1.40577403126884 1.40577453849779 1.96872804932083 1.63426688095778 2449718.820874568 0.548188690359917 42.5425375038312 16.8709288288304 -78.9145246850463 5598817.14723085 T 54 CATAB v2.0f-lin.ifort 2021-Apr-12 12:19:00 2021-Apr-12 12:19
2009-Oct-14 11:43 < 00:01 Jupiter 1.79269279543501 1.79269263153798 1.79269295933204 3.30760666592003 3.16153278696282 2455118.988472207 0.15835122099531 15.6380192503147 6.19457293938174 -89.9569948642277 9665836.58416628 T 54 CATAB v2.0f-lin.ifort 2021-Apr-12 12:19:00 2021-Apr-12 12:19
2024-Mar-03 17:37 < 00:01 Jupiter 1.95368510558584 1.95368489239016 1.95368531878153 4.92259821984786 4.83372225568709 2460373.233970352 0.253762882614586 15.5586554407257 8.28123869012699 -66.8042244347153 9744314.06768538 T 54 CATAB v2.0f-lin.ifort 2021-Apr-12 12:19:00 2021-Apr-12 12:19
2038-Jul-19 06:30 < 00:01 Jupiter 1.86887159684417 1.86887130186224 1.8688718918261 3.08046530269322 2.92964384801426 2465623.771085932 0.611188024212335 19.5634248003656 6.88018538220388 69.1898357758269 5609023.97229198 T 54 CATAB v2.0f-lin.ifort 2021-Apr-12 12:19:00 2021-Apr-12 12:19
2053-May-03 05:19 00:01 Jupiter 1.43445938525037 1.43445910600664 1.43445966449435 1.88500269165479 1.5402178604808 2471025.721199595 1.02789422835313 66.5437637126094 14.7563104184327 77.5142956205573 5682694.58683881 T 54 CATAB v2.0f-lin.ifort 2021-Apr-12 12:19:00 2021-Apr-12 12:19
2068-Feb-07 18:17 00:02 Jupiter 1.63583861465824 1.63583819458417 1.63583903473231 2.32816006918247 2.09397882246916 2476419.262018882 1.4937425320682 36.175209971159 3.09349809967029 85.1458788654808 4798285.36096101 T 54 CATAB v2.0f-lin.ifort 2021-Apr-12 12:19:00 2021-Apr-12 12:19
2082-Aug-29 21:07 00:02 Jupiter 1.91996380464923 1.91996359207786 1.91996401722082 4.75732109733899 4.6636651116834 2481736.379856533 1.55704897010858 81.3508679987062 8.75753707857511 87.4967831593103 9726351.77088531 T 54 CATAB v2.0f-lin.ifort 2021-Apr-12 12:19:00 2021-Apr-12 12:19
2096-Dec-12 15:01 00:02 Jupiter 1.95613046306091 1.95613015911329 1.95613076700854 4.06201093516407 3.95397450834283 2486955.125530105 1.92890549449356 30.6802318309723 10.198512628297 -81.0743202873227 4765201.52716161 T 54 CATAB v2.0f-lin.ifort 2021-Apr-12 12:19:00 2021-Apr-12 12:19
2111-Aug-11 10:53 00:03 Jupiter 1.60035656284481 1.60035564354153 1.6003574821491 1.9414397253215 1.64640394987517 2492308.953217512 2.65836599041028 85.2380853803819 5.69585276741715 70.6082109082727 5567593.85784156 T 54 CATAB v2.0f-lin.ifort 2021-Apr-12 12:19:00 2021-Apr-12 12:19
2126-May-05 10:39 00:03 Jupiter 1.46181117130939 1.4618104501602 1.46181189245941 1.91145476439835 1.57949109339926 2497689.943791757 3.03109890664983 81.7725354951011 26.2621203754844 -77.1565506902818 5809746.6603772 T 54 CATAB v2.0f-lin.ifort 2021-Apr-12 12:19:00 2021-Apr-12 12:19
2141-Feb-08 17:11 00:03 Jupiter 1.84290330452355 1.84290280853236 1.84290380051873 4.03915783229899 3.92371887155585 2503083.215762112 2.97457336428306 148.399888420505 7.49511572280682 83.9793700910771 10560437.5350662 T 54 CATAB v2.0f-lin.ifort 2021-Apr-12 12:19:00 2021-Apr-12 12:19
2155-Jun-01 12:33 00:03 Jupiter 1.97795135633783 1.97795113804765 1.97795157462812 4.71898457001253 4.6273481521432 2508309.023005631 3.06812401542302 108.532614466447 9.77086272841238 87.7155311301544 8032145.91066197 T 54 CATAB v2.0f-lin.ifort 2021-Apr-12 12:19:00 2021-Apr-12 12:19
2169-Nov-23 05:36 00:04 Jupiter 1.79246528068084 1.79246405068032 1.7924665106836 2.48829889703941 2.29053250659895 2513597.733486132 4.00841936182928 126.893163786797 6.44139375645443 80.1959577681104 6567825.26081877 T 54 CATAB v2.0f-lin.ifort 2021-Apr-12 12:19:00 2021-Apr-12 12:19
2184-Aug-26 07:57 00:04 Jupiter 1.38907802837114 1.38907779338094 1.38907826336371 1.91443278328006 1.56381154363679 2518987.831528599 4.3120515717531 281.363316127835 20.9272057114525 -89.3396706997756 4948454.58821378 T 54 CATAB v2.0f-lin.ifort 2021-Apr-12 12:19:00 2021-Apr-12 12:19
2199-Jul-02 23:21 00:05 Jupiter 1.7231757843161 1.72317468402029 1.72317688461856 2.95080031067755 2.7792315033825 2524411.472602859 4.8117660402575 188.476562523884 5.92777146799471 85.4995661264134 8306048.33161287 T 54 CATAB v2.0f-lin.ifort 2021-Apr-12 12:19:00 2021-Apr-12 12:19

Alternate Designations
 1925 UA = 1938 UC = 1951 TQ = 1951 TT = 1964 UD 
Ephemeris | Orbit Diagram | Orbital Elements | Mission Design | Physical Parameters | Discovery Circumstances | Close-Approach Data ]
ABOUT SSD CREDITS/AWARDS PRIVACY/COPYRIGHT GLOSSARY LINKS
FirstGov 2021-Apr-15 03:40 UT
(server date/time)  
NASA Home Page
Site Manager:   Ryan S. Park
Webmaster  Alan B. Chamberlin